TimeCDT,TemperatureF,Dew PointF,Humidity,Sea Level PressureIn,VisibilityMPH,Wind Direction,Wind SpeedMPH,Gust SpeedMPH,PrecipitationIn,Events,Conditions,WindDirDegrees,DateUTC
12:53 AM,75.9,73.0,91,30.09,10.0,Calm,Calm,-,N/A,,Clear,0,2013-06-21 05:53:00
1:53 AM,75.0,72.0,90,30.08,10.0,Calm,Calm,-,N/A,,Clear,0,2013-06-21 06:53:00
2:53 AM,73.9,72.0,93,30.08,10.0,Calm,Calm,-,N/A,,Clear,0,2013-06-21 07:53:00
3:53 AM,73.0,71.1,93,30.07,7.0,East,3.5,-,N/A,,Clear,90,2013-06-21 08:53:00
4:53 AM,73.0,71.1,93,30.08,7.0,Calm,Calm,-,N/A,,Clear,0,2013-06-21 09:53:00
5:53 AM,72.0,70.0,93,30.08,5.0,Calm,Calm,-,N/A,,Clear,0,2013-06-21 10:53:00
6:53 AM,73.9,71.1,91,30.09,5.0,Calm,Calm,-,N/A,,Clear,0,2013-06-21 11:53:00
7:53 AM,77.0,73.0,88,30.11,10.0,SSE,3.5,-,N/A,,Clear,150,2013-06-21 12:53:00
8:53 AM,81.0,73.9,79,30.12,10.0,South,3.5,-,N/A,,Clear,190,2013-06-21 13:53:00
9:53 AM,84.9,73.0,67,30.13,10.0,SE,5.8,-,N/A,,Mostly Cloudy,140,2013-06-21 14:53:00
10:53 AM,86.0,73.0,65,30.14,10.0,South,5.8,-,N/A,,Mostly Cloudy,180,2013-06-21 15:53:00
11:53 AM,88.0,72.0,59,30.13,10.0,SSE,5.8,-,N/A,,Scattered Clouds,160,2013-06-21 16:53:00
12:53 PM,89.1,70.0,53,30.12,10.0,South,5.8,-,N/A,,Clear,190,2013-06-21 17:53:00
1:53 PM,91.0,70.0,50,30.10,10.0,SSE,6.9,-,N/A,,Clear,160,2013-06-21 18:53:00
2:53 PM,91.0,72.0,53,30.09,10.0,South,10.4,16.1,N/A,,Clear,170,2013-06-21 19:53:00
3:53 PM,91.0,70.0,50,30.07,10.0,South,9.2,17.3,N/A,,Clear,170,2013-06-21 20:53:00
4:53 PM,91.0,71.1,52,30.06,10.0,SSE,11.5,-,N/A,,Clear,160,2013-06-21 21:53:00
5:53 PM,90.0,71.1,54,30.05,10.0,South,9.2,-,N/A,,Scattered Clouds,190,2013-06-21 22:53:00
6:53 PM,88.0,71.1,57,30.04,10.0,South,9.2,-,N/A,,Clear,180,2013-06-21 23:53:00
7:53 PM,84.9,73.0,67,30.04,10.0,SSE,5.8,-,N/A,,Clear,150,2013-06-22 00:53:00
8:53 PM,81.0,73.0,77,30.05,10.0,SSE,4.6,-,N/A,,Clear,160,2013-06-22 01:53:00
9:53 PM,79.0,73.0,82,30.06,10.0,South,4.6,-,N/A,,Clear,170,2013-06-22 02:53:00
10:53 PM,77.0,72.0,84,30.06,10.0,South,4.6,-,N/A,,Clear,170,2013-06-22 03:53:00
11:53 PM,75.9,72.0,87,30.07,10.0,Calm,Calm,-,N/A,,Clear,0,2013-06-22 04:53:00